Weather History for Kramfors Flygplats, Sweden

Change the Weather History Date:

Monday, January 21, 2013

  Actual Average Record
Temperature  
Mean Temperature -5 °F -  
Max Temperature 1 °F - - ()
Min Temperature -11 °F - - ()
Degree Days  
Heating Degree Days 70    
Moisture  
Dew Point -9 °F    
Average Humidity 82    
Maximum Humidity 85    
Minimum Humidity 77    
Precipitation  
Precipitation 0.00 in - - ()
Sea Level Pressure  
Sea Level Pressure 30.11 in    
Wind  
Wind Speed 3 mph ()    
Max Wind Speed 6 mph    
Max Gust Speed -    
Visibility 6.1 miles    
Events Snow    
T = Trace of Precipitation, MM = Missing Value Source: Averaged Metar Reports

Daily Weather History Graph

Daily Weather History Graph

Search for Another Location

Airport:

Trip Planner

Search our weather history database for the weather conditions in past years. The results will help you decide how hot, cold, wet, or windy it might be!

Date:

Astronomy

Jan. 21, 2013 Rise Set
Actual Time 8:50 AM CET 3:11 PM CET
Civil Twilight 7:50 AM CET 4:10 PM CET
Nautical Twilight 6:51 AM CET 5:09 PM CET
Astronomical Twilight 5:56 AM CET 6:04 PM CET
Moon 10:34 AM CET (1/21) 4:03 AM CET (1/21)
Length of Visible Light 8h 19m
Length of Day
6h 20m
Waxing Gibbous, 73% of the Moon is Illuminated
Jan 21
Waxing Gibbous
Jan 27
Full
Feb 3
Last Quarter
Feb 10
New
Feb 17
First Quarter

Hourly Weather History & Observations

Time (CET) Temp. Windchill Dew Point Humidity Pressure Visibility Wind Dir Wind Speed Gust Speed Precip Events Conditions
12:20 AM -2.2 °F -12.5 °F -7.6 °F 78% 30.12 in 6.2 mi NNW 4.6 mph - N/A   Partly Cloudy
12:50 AM -5.8 °F -14.5 °F -11.2 °F 77% 30.12 in 6.2 mi NNW 3.5 mph - N/A   Partly Cloudy
1:20 AM -5.8 °F - -9.4 °F 84% 30.15 in 6.2 mi NNE 2.3 mph - N/A   Ice Crystals
1:50 AM -7.6 °F -16.5 °F -13.0 °F 77% 30.15 in 6.2 mi Variable 3.5 mph - N/A   Partly Cloudy
2:20 AM -7.6 °F -16.5 °F -11.2 °F 84% 30.15 in 6.2 mi North 3.5 mph - N/A   Scattered Clouds
2:50 AM -7.6 °F -16.5 °F -11.2 °F 84% 30.15 in 6.2 mi NNE 3.5 mph - N/A   Partly Cloudy
3:20 AM -7.6 °F - -13.0 °F 77% 30.15 in 6.2 mi Calm Calm - N/A   Partly Cloudy
3:50 AM -9.4 °F - -14.8 °F 77% 30.15 in 6.2 mi Variable 2.3 mph - N/A Snow Snow Grains
4:20 AM -9.4 °F -18.6 °F -13.0 °F 84% 30.15 in 6.2 mi NW 3.5 mph - N/A Snow Light Snow
4:50 AM -9.4 °F - -14.8 °F 77% 30.15 in 6.2 mi North 2.3 mph - N/A   Partly Cloudy
5:20 AM -7.6 °F - -11.2 °F 84% 30.15 in 3.1 mi Variable 2.3 mph - N/A Snow Light Snow
5:50 AM -9.4 °F - -13.0 °F 84% 30.15 in - NNE 2.3 mph - N/A   Ice Crystals
6:20 AM -9.4 °F -20.9 °F -14.8 °F 77% 30.15 in - North 4.6 mph - N/A   Clear
6:50 AM -9.4 °F -20.9 °F -13.0 °F 84% 30.15 in - North 4.6 mph - N/A   Clear
7:20 AM -9.4 °F -20.9 °F -14.8 °F 77% 30.15 in - NNW 4.6 mph - N/A   Clear
7:50 AM -9.4 °F -20.9 °F -14.8 °F 77% 30.15 in - North 4.6 mph - N/A   Clear
8:20 AM -9.4 °F -18.6 °F -13.0 °F 84% 30.15 in 6.2 mi North 3.5 mph - N/A   Unknown
8:50 AM -11.2 °F -20.6 °F -14.8 °F 84% 30.15 in - North 3.5 mph - N/A   Clear
9:20 AM -11.2 °F -20.6 °F -14.8 °F 84% 30.15 in - North 3.5 mph - N/A   Clear
9:50 AM -7.6 °F -16.5 °F -13.0 °F 77% 30.18 in - NW 3.5 mph - N/A   Clear
10:20 AM -7.6 °F -16.5 °F -13.0 °F 77% 30.18 in - North 3.5 mph - N/A   Clear
10:50 AM -5.8 °F -14.5 °F -9.4 °F 84% 30.15 in - NNW 3.5 mph - N/A   Clear
11:20 AM -0.4 °F -10.4 °F -4.0 °F 85% 30.15 in 6.2 mi NW 4.6 mph - N/A   Partly Cloudy
11:50 AM 1.4 °F - -2.2 °F 85% 30.15 in 6.2 mi NNW 2.3 mph - N/A   Partly Cloudy
12:20 PM 1.4 °F -6.2 °F -4.0 °F 78% 30.15 in 6.2 mi NW 3.5 mph - N/A   Scattered Clouds
12:50 PM -0.4 °F - -4.0 °F 85% 30.15 in 6.2 mi NNW 2.3 mph - N/A   Partly Cloudy
1:20 PM -0.4 °F -8.3 °F -4.0 °F 85% 30.12 in 6.2 mi NW 3.5 mph - N/A   Partly Cloudy
1:50 PM 1.4 °F -8.3 °F -2.2 °F 85% 30.12 in 6.2 mi WNW 4.6 mph - N/A   Partly Cloudy
2:20 PM 1.4 °F -6.2 °F -2.2 °F 85% 30.12 in 6.2 mi NW 3.5 mph - N/A   Partly Cloudy
2:50 PM 1.4 °F -6.2 °F -2.2 °F 85% 30.12 in 6.2 mi NW 3.5 mph - N/A   Scattered Clouds
3:20 PM 1.4 °F -6.2 °F -2.2 °F 85% 30.09 in 6.2 mi WNW 3.5 mph - N/A   Partly Cloudy
3:50 PM -0.4 °F -10.4 °F -4.0 °F 85% 30.09 in 6.2 mi WNW 4.6 mph - N/A   Partly Cloudy
4:20 PM 1.4 °F -9.9 °F -2.2 °F 85% 30.09 in 6.2 mi NW 5.8 mph - N/A   Partly Cloudy
4:50 PM -2.2 °F -10.4 °F -5.8 °F 85% 30.09 in 6.2 mi NW 3.5 mph - N/A   Partly Cloudy
5:20 PM -4.0 °F - -7.6 °F 85% 30.06 in 6.2 mi Variable 2.3 mph - N/A   Scattered Clouds
5:50 PM -4.0 °F -14.6 °F -7.6 °F 85% 30.06 in 6.2 mi North 4.6 mph - N/A   Scattered Clouds
6:20 PM -5.8 °F -14.5 °F -9.4 °F 84% 30.06 in 6.2 mi North 3.5 mph - N/A   Partly Cloudy
6:50 PM -4.0 °F -16.3 °F -7.6 °F 85% 30.06 in 6.2 mi NNW 5.8 mph - N/A   Partly Cloudy
7:20 PM -4.0 °F -14.6 °F -7.6 °F 85% 30.06 in 6.2 mi NNW 4.6 mph - N/A   Partly Cloudy
7:50 PM -5.8 °F -14.5 °F -11.2 °F 77% 30.04 in 6.2 mi NNW 3.5 mph - N/A   Partly Cloudy
8:20 PM -5.8 °F -16.7 °F -9.4 °F 84% 30.04 in 6.2 mi NNW 4.6 mph - N/A   Partly Cloudy
8:50 PM -2.2 °F -10.4 °F -7.6 °F 78% 30.04 in 6.2 mi NW 3.5 mph - N/A   Partly Cloudy
9:20 PM -4.0 °F -12.4 °F -9.4 °F 78% 30.04 in 6.2 mi WNW 3.5 mph - N/A   Partly Cloudy
9:50 PM -5.8 °F -14.5 °F -9.4 °F 84% 30.04 in 6.2 mi NW 3.5 mph - N/A   Partly Cloudy
10:20 PM -4.0 °F -12.4 °F -9.4 °F 78% 30.04 in 6.2 mi NW 3.5 mph - N/A   Partly Cloudy
10:50 PM -7.6 °F -18.8 °F -13.0 °F 77% 30.04 in 6.2 mi North 4.6 mph - N/A   Partly Cloudy
11:20 PM -5.8 °F -14.5 °F -9.4 °F 84% 30.04 in 6.2 mi North 3.5 mph - N/A   Partly Cloudy
11:50 PM -4.0 °F -12.4 °F -7.6 °F 85% 30.04 in 6.2 mi North 3.5 mph - N/A   Partly Cloudy